This demonstration page uses our WeatherBlox Daily Observations layout. Learn more.

Left ArrowRight Arrow

Hourly Observations for August 30, 2018

Temp ( °F °C ) Dew Point ( °F °C ) Humidity (%) Winds ( mph kmh ) Pressure ( in mb ) Visibility ( mi km ) Precip ( " mm )
12:52 am 00:52 Partly Cloudy 71 21.7 68 20 90 90 SE 9 15 30.09 1019 10 16 0.00 0.00
1:52 am 01:52 Cloudy 72 22.2 68 20 87 87 SE 9 15 30.09 1019 10 16 0.00 0.00
2:52 am 02:52 Partly Cloudy 71 21.7 67 19.4 87 87 SE 9 15 30.08 1019 10 16 0.00 0.00
3:08 am 03:08 Mostly Cloudy 71 21.7 68 20 90 90 SE 9 15 30.09 1019 10 16 0.00 0.00
3:52 am 03:52 Cloudy 71 21.7 67 19.4 87 87 SE 10 17 30.08 1019 10 16 0.00 0.00
4:52 am 04:52 Mostly Clear 70 21.1 66 18.9 87 87 SE 13 20 30.07 1018 10 16 0.00 0.00
5:52 am 05:52 Clear 69 20.6 65 18.3 87 87 SE 9 15 30.06 1018 10 16 0.00 0.00
6:22 am 06:22 Partly Cloudy 69 20.6 65 18.3 87 87 SE 10 17 30.06 1018 10 16 0.00 0.00
6:35 am 06:35 Mostly Cloudy 70 21.1 66 18.9 87 87 SSE 9 15 30.09 1019 10 16 0.00 0.00
6:52 am 06:52 Cloudy 70 21.1 66 18.9 87 87 SE 10 17 30.09 1019 10 16 0.00 0.00
7:52 am 07:52 Cloudy 71 21.7 67 19.4 87 87 SE 16 26 30.08 1019 10 16 0.00 0.00
8:30 am 08:30 Cloudy with Nearby Thunderstorms 72 22.2 66 18.9 82 82 SE 17 28 30.06 1018 10 16 0.00 0.00
8:42 am 08:42 Cloudy with Nearby Thunderstorms 72 22.2 67 19.4 84 84 SSE 13 20 30.06 1018 10 16 0.00 0.00
8:49 am 08:49 Cloudy with Thunderstorms 72 22 66 19 83 83 SSE 13 20 30.06 1018 10 16 0.00 0.00
8:50 am 08:50 Cloudy with Thunderstorms 72 22.2 67 19.4 84 84 SSE 15 24 30.06 1018 10 16 0.00 0.00
9:16 am 09:16 Cloudy with Strong Thunderstorms 70 21.1 67 19.4 90 90 S 14 22 30.09 1019 2 3 0.08 2.03
9:21 am 09:21 Cloudy with Strong Thunderstorms 70 21.1 67 19.4 90 90 SE 10 17 30.06 1018 1 1 0.26 6.60
9:28 am 09:28 Mostly Cloudy with Strong Thunderstorms 70 21.1 68 20 93 93 SSE 21 33 30.09 1019 0 0 0.69 17.53
9:31 am 09:31 Mostly Cloudy with Strong Thunderstorms 70 21.1 68 20 93 93 S 17 28 30.09 1019 1 1 0.84 21.34
9:34 am 09:34 Cloudy with Strong Thunderstorms 70 21.1 68 20 93 93 SSE 14 22 30.09 1019 1 1 0.90 22.86
9:41 am 09:41 Cloudy with Thunderstorms 70 21.1 68 20 93 93 SE 10 17 30.09 1019 3 4 0.95 24.13
9:49 am 09:49 Cloudy with Thunderstorms 70 21 68 20 94 94 S 13 20 30.09 1019 5 8 0.99 25.15
9:52 am 09:52 Cloudy with Strong Thunderstorms 70 21.1 68 20 93 93 S 10 17 30.09 1019 3 4 1.00 25.40
10:02 am 10:02 Cloudy with Strong Thunderstorms 70 21.1 68 20 93 93 E 9 15 30.09 1019 2 3 0.15 3.81
10:06 am 10:06 Cloudy with Thunderstorms 70 21.1 68 20 93 93 ESE 6 9 30.09 1019 3 5 0.15 3.81
10:48 am 10:48 Cloudy with Thunderstorms 70 21 68 20 94 94 SSW 9 15 30.15 1021 2 2 0.19 4.83
10:52 am 10:52 Cloudy with Strong Thunderstorms 70 21.1 68 20 93 93 SSW 14 22 30.15 1021 1 2 0.23 5.84
10:58 am 10:58 Cloudy with Strong Thunderstorms 69 20.6 67 19.4 93 93 ENE 12 19 30.12 1020 1 1 0.28 7.11
11:05 am 11:05 Cloudy with Strong Thunderstorms 69 20.6 67 19.4 93 93 E 8 13 30.15 1021 1 2 0.45 11.43
11:10 am 11:10 Cloudy with Thunderstorms 69 20.6 67 19.4 93 93 E 7 11 30.15 1021 3 5 0.48 12.19
11:18 am 11:18 Cloudy with Strong Thunderstorms 69 20.6 68 20 96 96 WNW 8 13 30.18 1022 2 3 0.54 13.72
11:29 am 11:29 Cloudy with Thunderstorms 69 20.6 66 18.9 90 90 NW 8 13 30.15 1021 3 5 0.62 15.75
11:34 am 11:34 Cloudy with Strong Thunderstorms 69 20.6 67 19.4 93 93 W 10 17 30.15 1021 2 3 0.66 16.76
11:44 am 11:44 Cloudy with Nearby Thunderstorms 69 20.6 66 18.9 90 90 N 7 11 30.15 1021 3 4 0.72 18.29
11:52 am 11:52 Cloudy with Nearby Thunderstorms 69 20.6 67 19.4 93 93 NE 8 13 30.15 1021 4 6 0.75 19.05
12:00 pm 12:00 Cloudy with Thunderstorms 69 20.6 67 19.4 93 93 NE 14 22 30.15 1021 2 2 0.00 0.03
12:10 pm 12:10 Cloudy with Thunderstorms 68 20 65 18.3 90 90 NE 13 20 30.15 1021 3 4 0.00 0.03
12:12 pm 12:12 Cloudy with Thunderstorms 67 19.4 65 18.3 93 93 ENE 9 15 30.15 1021 6 10 0.01 0.25
12:31 pm 12:31 Cloudy with Nearby Thunderstorms 67 19.4 65 18.3 93 93 N 9 15 30.15 1021 7 11 0.02 0.51
12:52 pm 12:52 Cloudy with Nearby Thunderstorms 67 19.4 65 18.3 93 93 N 5 7 30.16 1021 4 6 0.06 1.52
1:22 pm 13:22 Cloudy with Thunderstorms 67 19.4 65 18.3 93 93 ESE 10 17 30.12 1020 5 8 0.09 2.29
1:40 pm 13:40 Cloudy with Nearby Thunderstorms 67 19.4 65 18.3 93 93 ESE 15 24 30.09 1019 4 6 0.16 4.06
1:52 pm 13:52 Cloudy with Rain 68 20 65 18.3 90 90 SSE 10 17 30.11 1020 4 6 0.21 5.33
1:59 pm 13:59 Cloudy with Nearby Thunderstorms 68 20 66 18.9 93 93 SSE 13 20 30.09 1019 4 6 0.02 0.51
2:14 pm 14:14 Mostly Cloudy with Light Rain 68 20 66 18.9 93 93 ESE 9 15 30.09 1019 7 11 0.06 1.52
2:25 pm 14:25 Cloudy with Thunderstorms 69 20.6 66 18.9 90 90 SSE 13 20 30.09 1019 9 14 0.07 1.78
2:40 pm 14:40 Cloudy with Light Rain 69 20.6 65 18.3 87 87 SSE 10 17 30.09 1019 10 16 0.07 1.78
2:52 pm 14:52 Mostly Cloudy with Light Rain 69 20.6 65 18.3 87 87 ESE 12 19 30.08 1019 10 16 0.07 1.78
3:12 pm 15:12 Mostly Cloudy with Nearby Thunderstorms 69 20.6 66 18.9 90 90 NNW 9 15 30.09 1019 10 16 0.00 0.03
3:27 pm 15:27 Mostly Cloudy with Light Rain 69 20.6 66 18.9 90 90 NNW 7 11 30.12 1020 8 13 0.00 0.03
3:43 pm 15:43 Cloudy with Nearby Thunderstorms 68 20 66 18.9 93 93 NW 8 13 30.12 1020 5 8 0.04 1.02
3:52 pm 15:52 Cloudy with Nearby Thunderstorms 68 20 66 18.9 93 93 NW 7 11 30.11 1020 4 6 0.06 1.52
4:02 pm 16:02 Cloudy with Thunderstorms 68 20 66 18.9 93 93 NNW 10 17 30.12 1020 5 8 0.02 0.51
4:13 pm 16:13 Cloudy with Heavy Rain 68 20 66 18.9 93 93 NW 7 11 30.12 1020 3 4 0.07 1.78
4:23 pm 16:23 Cloudy with Thunderstorms 68 20 66 18.9 93 93 W 3 6 30.09 1019 3 5 0.11 2.79
4:50 pm 16:50 Cloudy with Rain 68 20 64 18 88 88 S 18 30 30.03 1017 5 8 0.18 4.57
4:52 pm 16:52 Cloudy with Rain 68 20 65 18.3 90 90 S 20 31 30.02 1017 5 8 0.19 4.83
5:52 pm 17:52 Partly Cloudy with Light Rain 69 20.6 64 17.8 84 84 SSE 15 24 29.91 1013 10 16 0.03 0.76
7:52 pm 19:52 Clear 68 20 65 18.3 90 90 Calm 29.97 1015 10 16 0.00 0.00
8:52 pm 20:52 Partly Cloudy 67 19.4 64 17.8 91 91 SE 3 6 30.01 1016 10 16 0.00 0.00
9:52 pm 21:52 Clear 68 20 65 18.3 90 90 SE 6 9 30.03 1017 10 16 0.00 0.00
10:52 pm 22:52 Clear 67 19.4 64 17.8 91 91 ESE 7 11 30.04 1017 10 16 0.00 0.00
11:52 pm 23:52 Clear 68 20 65 18.3 90 90 SSE 9 15 30.04 1017 10 16 0.00 0.00

Powered by AerisWeather